Location: Lobstick
(53.6000°N, 115.1667°W)
Time: 10:42:09
(UTC+00:00)

ITUPSAT 1 - Pass Details

Date: 16 December 2023
Orbit: 696 x 707 km, 98.5° (Epoch: 25 February)

Event Time Altitude Azimuth Distance (km) Brightness Sun altitude
Rises 14:41:33 0° 117° (ESE) 3,100 ? -9.5°
Reaches altitude 10° 14:44:18 10° 100° (E) 2,184 ? -9.2°
Maximum altitude 14:47:43 20° 55° (NE) 1,614 ? -8.7°
Drops below altitude 10° 14:51:09 10° 9° (N) 2,190 ? -8.3°
Sets 14:53:55 0° 353° (N) 3,111 ? -7.9°
